Year,Month,Day,Hour,Minute,Value (Times are PST for temperature in C)
2019,03,19,00,00,11.60
2019,03,19,00,01,11.60
2019,03,19,00,02,11.60
2019,03,19,00,03,11.60
2019,03,19,00,04,11.60
2019,03,19,00,05,11.70
2019,03,19,00,06,11.70
2019,03,19,00,07,11.70
2019,03,19,00,08,11.70
2019,03,19,00,09,11.70
2019,03,19,00,10,11.80
2019,03,19,00,11,11.80
2019,03,19,00,12,11.70
2019,03,19,00,13,11.70
2019,03,19,00,14,11.70
2019,03,19,00,15,11.70
2019,03,19,00,16,11.70
2019,03,19,00,17,11.70
2019,03,19,00,18,11.70
2019,03,19,00,19,11.70
2019,03,19,00,20,11.60
2019,03,19,00,21,11.60
2019,03,19,00,22,11.60
2019,03,19,00,23,11.60
2019,03,19,00,24,11.60
2019,03,19,00,25,11.60
2019,03,19,00,26,11.60
2019,03,19,00,27,11.50
2019,03,19,00,28,11.40
2019,03,19,00,29,11.40
2019,03,19,00,30,11.40
2019,03,19,00,31,11.40
2019,03,19,00,32,11.40
2019,03,19,00,33,11.40
2019,03,19,00,34,11.40
2019,03,19,00,35,11.40
2019,03,19,00,36,11.30
2019,03,19,00,37,11.30
2019,03,19,00,38,11.30
2019,03,19,00,39,11.20
2019,03,19,00,40,11.20
2019,03,19,00,41,11.20
2019,03,19,00,42,11.20
2019,03,19,00,43,11.10
2019,03,19,00,44,11.10
2019,03,19,00,45,11.10
2019,03,19,00,46,11.10
2019,03,19,00,47,11.10
2019,03,19,00,48,11.10
2019,03,19,00,49,11.10
2019,03,19,00,50,11.10
2019,03,19,00,51,11.00
2019,03,19,00,52,10.90
2019,03,19,00,53,10.90
2019,03,19,00,54,10.90
2019,03,19,00,55,10.90
2019,03,19,00,56,10.90
2019,03,19,00,57,10.90
2019,03,19,00,58,10.90
2019,03,19,00,59,10.90
2019,03,19,01,00,10.80
2019,03,19,01,01,10.80
2019,03,19,01,02,10.80
2019,03,19,01,03,10.80
2019,03,19,01,04,10.80
2019,03,19,01,05,10.70
2019,03,19,01,06,10.70
2019,03,19,01,07,10.70
2019,03,19,01,08,10.70
2019,03,19,01,09,10.70
2019,03,19,01,10,10.70
2019,03,19,01,11,10.70
2019,03,19,01,12,10.70
2019,03,19,01,13,10.70
2019,03,19,01,14,10.60
2019,03,19,01,15,10.60
2019,03,19,01,16,10.60
2019,03,19,01,17,10.60
2019,03,19,01,18,10.60
2019,03,19,01,19,10.60
2019,03,19,01,20,10.60
2019,03,19,01,21,10.60
2019,03,19,01,22,10.60
2019,03,19,01,23,10.60
2019,03,19,01,24,10.60
2019,03,19,01,25,10.70
2019,03,19,01,26,10.70
2019,03,19,01,27,10.70
2019,03,19,01,28,10.70
2019,03,19,01,29,10.70
2019,03,19,01,30,10.80
2019,03,19,01,31,10.80
2019,03,19,01,32,10.90
2019,03,19,01,33,10.90
2019,03,19,01,34,10.90
2019,03,19,01,35,10.90
2019,03,19,01,36,10.90
2019,03,19,01,37,10.90
2019,03,19,01,38,10.90
2019,03,19,01,39,10.90
2019,03,19,01,40,10.90
2019,03,19,01,41,10.90
2019,03,19,01,42,10.90
2019,03,19,01,43,10.90
2019,03,19,01,44,11.00
2019,03,19,01,45,11.10
2019,03,19,01,46,11.10
2019,03,19,01,47,11.10
2019,03,19,01,48,11.10
2019,03,19,01,49,11.10
2019,03,19,01,50,11.10
2019,03,19,01,51,11.10
2019,03,19,01,52,11.10
2019,03,19,01,53,11.10
2019,03,19,01,54,11.10
2019,03,19,01,55,11.10
2019,03,19,01,56,11.10
2019,03,19,01,57,11.10
2019,03,19,01,58,11.10
2019,03,19,01,59,11.10
2019,03,19,02,00,11.10
2019,03,19,02,01,11.10
2019,03,19,02,02,11.10
2019,03,19,02,03,11.10
2019,03,19,02,04,11.10
2019,03,19,02,05,11.10
2019,03,19,02,06,11.10
2019,03,19,02,07,11.10
2019,03,19,02,08,11.10
2019,03,19,02,09,11.10
2019,03,19,02,10,11.10
2019,03,19,02,11,11.10
2019,03,19,02,12,11.10
2019,03,19,02,13,11.10
2019,03,19,02,14,11.10
2019,03,19,02,15,11.10
2019,03,19,02,16,11.10
2019,03,19,02,17,11.10
2019,03,19,02,18,11.10
2019,03,19,02,19,11.10
2019,03,19,02,20,11.10
2019,03,19,02,21,11.10
2019,03,19,02,22,11.10
2019,03,19,02,23,11.20
2019,03,19,02,24,11.20
2019,03,19,02,25,11.20
2019,03,19,02,26,11.20
2019,03,19,02,27,11.20
2019,03,19,02,28,11.20
2019,03,19,02,29,11.20
2019,03,19,02,30,11.20
2019,03,19,02,31,11.10
2019,03,19,02,32,11.10
2019,03,19,02,33,11.10
2019,03,19,02,34,11.10
2019,03,19,02,35,11.00
2019,03,19,02,36,10.90
2019,03,19,02,37,10.90
2019,03,19,02,38,10.90
2019,03,19,02,39,10.80
2019,03,19,02,40,10.80
2019,03,19,02,41,10.70
2019,03,19,02,42,10.70
2019,03,19,02,43,10.60
2019,03,19,02,44,10.60
2019,03,19,02,45,10.50
2019,03,19,02,46,10.40
2019,03,19,02,47,10.40
2019,03,19,02,48,10.40
2019,03,19,02,49,10.40
2019,03,19,02,50,10.30
2019,03,19,02,51,10.30
2019,03,19,02,52,10.30
2019,03,19,02,53,10.30
2019,03,19,02,54,10.20
2019,03,19,02,55,10.20
2019,03,19,02,56,10.20
2019,03,19,02,57,10.20
2019,03,19,02,58,10.10
2019,03,19,02,59,10.10
2019,03,19,03,00,10.10
2019,03,19,03,01,10.10
2019,03,19,03,02,10.10
2019,03,19,03,03,10.10
2019,03,19,03,04,10.00
2019,03,19,03,05,9.90
2019,03,19,03,06,9.90
2019,03,19,03,07,9.90
2019,03,19,03,08,9.90
2019,03,19,03,09,9.90
2019,03,19,03,10,9.90
2019,03,19,03,11,9.90
2019,03,19,03,12,9.90
2019,03,19,03,13,9.90
2019,03,19,03,14,9.90
2019,03,19,03,15,9.90
2019,03,19,03,16,9.90
2019,03,19,03,17,9.90
2019,03,19,03,18,9.90
2019,03,19,03,19,9.90
2019,03,19,03,20,9.90
2019,03,19,03,21,9.90
2019,03,19,03,22,9.90
2019,03,19,03,23,9.90
2019,03,19,03,24,9.90
2019,03,19,03,25,10.00
2019,03,19,03,26,10.00
2019,03,19,03,27,10.00
2019,03,19,03,28,10.10
2019,03,19,03,29,10.10
2019,03,19,03,30,10.10
2019,03,19,03,31,10.10
2019,03,19,03,32,10.10
2019,03,19,03,33,10.10
2019,03,19,03,34,10.10
2019,03,19,03,35,10.10
2019,03,19,03,36,10.10
2019,03,19,03,37,10.10
2019,03,19,03,38,10.20
2019,03,19,03,39,10.20
2019,03,19,03,40,10.20
2019,03,19,03,41,10.20
2019,03,19,03,42,10.20
2019,03,19,03,43,10.30
2019,03,19,03,44,10.30
2019,03,19,03,45,10.20
2019,03,19,03,46,10.20
2019,03,19,03,47,10.20
2019,03,19,03,48,10.20
2019,03,19,03,49,10.30
2019,03,19,03,50,10.30
2019,03,19,03,51,10.30
2019,03,19,03,52,10.30
2019,03,19,03,53,10.40
2019,03,19,03,54,10.40
2019,03,19,03,55,10.40
2019,03,19,03,56,10.40
2019,03,19,03,57,10.40
2019,03,19,03,58,10.40
2019,03,19,03,59,10.40
2019,03,19,04,00,10.40
2019,03,19,04,01,10.40
2019,03,19,04,02,10.40
2019,03,19,04,03,10.40
2019,03,19,04,04,10.40
2019,03,19,04,05,10.40
2019,03,19,04,06,10.40
2019,03,19,04,07,10.40
2019,03,19,04,08,10.30
2019,03,19,04,09,10.30
2019,03,19,04,10,10.30
2019,03,19,04,11,10.20
2019,03,19,04,12,10.20
2019,03,19,04,13,10.10
2019,03,19,04,14,10.10
2019,03,19,04,15,10.10
2019,03,19,04,16,9.90
2019,03,19,04,17,9.90
2019,03,19,04,18,9.90
2019,03,19,04,19,9.80
2019,03,19,04,20,9.80
2019,03,19,04,21,9.70
2019,03,19,04,22,9.70
2019,03,19,04,23,9.70
2019,03,19,04,24,9.60
2019,03,19,04,25,9.60
2019,03,19,04,26,9.50
2019,03,19,04,27,9.50
2019,03,19,04,28,9.50
2019,03,19,04,29,9.40
2019,03,19,04,30,9.40
2019,03,19,04,31,9.40
2019,03,19,04,32,9.40
2019,03,19,04,33,9.40
2019,03,19,04,34,9.30
2019,03,19,04,35,9.30
2019,03,19,04,36,9.30
2019,03,19,04,37,9.30
2019,03,19,04,38,9.30
2019,03,19,04,39,9.20
2019,03,19,04,40,9.20
2019,03,19,04,41,9.20
2019,03,19,04,42,9.20
2019,03,19,04,43,9.20
2019,03,19,04,44,9.20
2019,03,19,04,45,9.20
2019,03,19,04,46,9.20
2019,03,19,04,47,9.20
2019,03,19,04,48,9.20
2019,03,19,04,49,9.20
2019,03,19,04,50,9.20
2019,03,19,04,51,9.20
2019,03,19,04,52,9.20
2019,03,19,04,53,9.20
2019,03,19,04,54,9.20
2019,03,19,04,55,9.30
2019,03,19,04,56,9.40
2019,03,19,04,57,9.40
2019,03,19,04,58,9.50
2019,03,19,04,59,9.50
2019,03,19,05,00,9.50
2019,03,19,05,01,9.60
2019,03,19,05,02,9.60
2019,03,19,05,03,9.60
2019,03,19,05,04,9.60
2019,03,19,05,05,9.60
2019,03,19,05,06,9.60
2019,03,19,05,07,9.60
2019,03,19,05,08,9.70
2019,03,19,05,09,9.70
2019,03,19,05,10,9.70
2019,03,19,05,11,9.70
2019,03,19,05,12,9.70
2019,03,19,05,13,9.70
2019,03,19,05,14,9.70
2019,03,19,05,15,9.70
2019,03,19,05,16,9.70
2019,03,19,05,17,9.80
2019,03,19,05,18,9.80
2019,03,19,05,19,9.80
2019,03,19,05,20,9.90
2019,03,19,05,21,9.90
2019,03,19,05,22,9.90
2019,03,19,05,23,9.90
2019,03,19,05,24,9.90
2019,03,19,05,25,9.90
2019,03,19,05,26,10.00
2019,03,19,05,27,10.10
2019,03,19,05,28,10.10
2019,03,19,05,29,10.10
2019,03,19,05,30,10.10
2019,03,19,05,31,10.10
2019,03,19,05,32,10.10
2019,03,19,05,33,10.10
2019,03,19,05,34,10.10
2019,03,19,05,35,10.10
2019,03,19,05,36,10.10
2019,03,19,05,37,10.10
2019,03,19,05,38,10.10
2019,03,19,05,39,10.00
2019,03,19,05,40,9.90
2019,03,19,05,41,9.90
2019,03,19,05,42,9.90
2019,03,19,05,43,9.90
2019,03,19,05,44,9.90
2019,03,19,05,45,9.90
2019,03,19,05,46,9.90
2019,03,19,05,47,9.90
2019,03,19,05,48,9.90
2019,03,19,05,49,9.90
2019,03,19,05,50,9.80
2019,03,19,05,51,9.80
2019,03,19,05,52,9.70
2019,03,19,05,53,9.70
2019,03,19,05,54,9.60
2019,03,19,05,55,9.50
2019,03,19,05,56,9.50
2019,03,19,05,57,9.40
2019,03,19,05,58,9.30
2019,03,19,05,59,9.30
2019,03,19,06,00,9.20
2019,03,19,06,01,9.20
2019,03,19,06,02,9.10
2019,03,19,06,03,9.00
2019,03,19,06,04,9.00
2019,03,19,06,05,9.00
2019,03,19,06,06,8.90
2019,03,19,06,07,8.90
2019,03,19,06,08,8.90
2019,03,19,06,09,8.80
2019,03,19,06,10,8.70
2019,03,19,06,11,8.70
2019,03,19,06,12,8.70
2019,03,19,06,13,8.70
2019,03,19,06,14,8.70
2019,03,19,06,15,8.70
2019,03,19,06,16,8.70
2019,03,19,06,17,8.70
2019,03,19,06,18,8.70
2019,03,19,06,19,8.70
2019,03,19,06,20,8.70
2019,03,19,06,21,8.60
2019,03,19,06,22,8.60
2019,03,19,06,23,8.60
2019,03,19,06,24,8.50
2019,03,19,06,25,8.50
2019,03,19,06,26,8.50
2019,03,19,06,27,8.50
2019,03,19,06,28,8.50
2019,03,19,06,29,8.50
2019,03,19,06,30,8.50
2019,03,19,06,31,8.50
2019,03,19,06,32,8.50
2019,03,19,06,33,8.50
2019,03,19,06,34,8.50
2019,03,19,06,35,8.50
2019,03,19,06,36,8.50
2019,03,19,06,37,8.50
2019,03,19,06,38,8.40
2019,03,19,06,39,8.40
2019,03,19,06,40,8.40
2019,03,19,06,41,8.40
2019,03,19,06,42,8.40
2019,03,19,06,43,8.40
2019,03,19,06,44,8.40
2019,03,19,06,45,8.40
2019,03,19,06,46,8.40
2019,03,19,06,47,8.40
2019,03,19,06,48,8.40
2019,03,19,06,49,8.30
2019,03,19,06,50,8.30
2019,03,19,06,51,8.30
2019,03,19,06,52,8.30
2019,03,19,06,53,8.30
2019,03,19,06,54,8.30
2019,03,19,06,55,8.30
2019,03,19,06,56,8.30
2019,03,19,06,57,8.30
2019,03,19,06,58,8.20
2019,03,19,06,59,8.20
2019,03,19,07,00,8.20
2019,03,19,07,01,8.20
2019,03,19,07,02,8.20
2019,03,19,07,03,8.10
2019,03,19,07,04,8.10
2019,03,19,07,05,8.00
2019,03,19,07,06,8.00
2019,03,19,07,07,7.90
2019,03,19,07,08,7.90
2019,03,19,07,09,7.80
2019,03,19,07,10,7.80
2019,03,19,07,11,7.80
2019,03,19,07,12,7.80
2019,03,19,07,13,7.70
2019,03,19,07,14,7.70
2019,03,19,07,15,7.60
2019,03,19,07,16,7.60
2019,03,19,07,17,7.60
2019,03,19,07,18,7.60
2019,03,19,07,19,7.50
2019,03,19,07,20,7.50
2019,03,19,07,21,7.50
2019,03,19,07,22,7.40
2019,03,19,07,23,7.40
2019,03,19,07,24,7.40
2019,03,19,07,25,7.40
2019,03,19,07,26,7.30
2019,03,19,07,27,7.30
2019,03,19,07,28,7.30
2019,03,19,07,29,7.30
2019,03,19,07,30,7.30
2019,03,19,07,31,7.30
2019,03,19,07,32,7.30
2019,03,19,07,33,7.40
2019,03,19,07,34,7.40
2019,03,19,07,35,7.40
2019,03,19,07,36,7.40
2019,03,19,07,37,7.50
2019,03,19,07,38,7.50
2019,03,19,07,39,7.50
2019,03,19,07,40,7.60
2019,03,19,07,41,7.60
2019,03,19,07,42,7.60
2019,03,19,07,43,7.60
2019,03,19,07,44,7.70
2019,03,19,07,45,7.70
2019,03,19,07,46,7.70
2019,03,19,07,47,7.80
2019,03,19,07,48,7.80
2019,03,19,07,49,7.80
2019,03,19,07,50,7.80
2019,03,19,07,51,7.90
2019,03,19,07,52,7.90
2019,03,19,07,53,7.90
2019,03,19,07,54,8.00
2019,03,19,07,55,8.00
2019,03,19,07,56,8.10
2019,03,19,07,57,8.10
2019,03,19,07,58,8.20
2019,03,19,07,59,8.20
2019,03,19,08,00,8.20
2019,03,19,08,01,8.30
2019,03,19,08,02,8.40
2019,03,19,08,03,8.40
2019,03,19,08,04,8.50
2019,03,19,08,05,8.50
2019,03,19,08,06,8.60
2019,03,19,08,07,8.70
2019,03,19,08,08,8.70
2019,03,19,08,09,8.80
2019,03,19,08,10,8.80
2019,03,19,08,11,8.90
2019,03,19,08,12,8.90
2019,03,19,08,13,9.00
2019,03,19,08,14,9.00
2019,03,19,08,15,9.10
2019,03,19,08,16,9.10
2019,03,19,08,17,9.20
2019,03,19,08,18,9.20
2019,03,19,08,19,9.20
2019,03,19,08,20,9.30
2019,03,19,08,21,9.40
2019,03,19,08,22,9.40
2019,03,19,08,23,9.50
2019,03,19,08,24,9.50
2019,03,19,08,25,9.60
2019,03,19,08,26,9.60
2019,03,19,08,27,9.60
2019,03,19,08,28,9.70
2019,03,19,08,29,9.70
2019,03,19,08,30,9.70
2019,03,19,08,31,9.80
2019,03,19,08,32,9.80
2019,03,19,08,33,9.90
2019,03,19,08,34,9.90
2019,03,19,08,35,9.90
2019,03,19,08,36,10.00
2019,03,19,08,37,10.10
2019,03,19,08,38,10.10
2019,03,19,08,39,10.20
2019,03,19,08,40,10.20
2019,03,19,08,41,10.30
2019,03,19,08,42,10.30
2019,03,19,08,43,10.40
2019,03,19,08,44,10.40
2019,03,19,08,45,10.40
2019,03,19,08,46,10.40
2019,03,19,08,47,10.50
2019,03,19,08,48,10.60
2019,03,19,08,49,10.60
2019,03,19,08,50,10.60
2019,03,19,08,51,10.60
2019,03,19,08,52,10.70
2019,03,19,08,53,10.70
2019,03,19,08,54,10.80
2019,03,19,08,55,10.80
2019,03,19,08,56,10.90
2019,03,19,08,57,10.90
2019,03,19,08,58,10.90
2019,03,19,08,59,10.90
2019,03,19,09,00,11.00
2019,03,19,09,01,11.10
2019,03,19,09,02,11.10
2019,03,19,09,03,11.10
2019,03,19,09,04,11.10
2019,03,19,09,05,11.20
2019,03,19,09,06,11.20
2019,03,19,09,07,11.30
2019,03,19,09,08,11.30
2019,03,19,09,09,11.40
2019,03,19,09,10,11.40
2019,03,19,09,11,11.40
2019,03,19,09,12,11.50
2019,03,19,09,13,11.60
2019,03,19,09,14,11.60
2019,03,19,09,15,11.60
2019,03,19,09,16,11.50
2019,03,19,09,17,11.40
2019,03,19,09,18,11.40
2019,03,19,09,19,11.40
2019,03,19,09,20,11.40
2019,03,19,09,21,11.40
2019,03,19,09,22,11.40
2019,03,19,09,23,11.40
2019,03,19,09,24,11.40
2019,03,19,09,25,11.50
2019,03,19,09,26,11.60
2019,03,19,09,27,11.60
2019,03,19,09,28,11.70
2019,03,19,09,29,11.80
2019,03,19,09,30,11.80
2019,03,19,09,31,11.80
2019,03,19,09,32,11.80
2019,03,19,09,33,11.90
2019,03,19,09,34,11.90
2019,03,19,09,35,12.00
2019,03,19,09,36,12.00
2019,03,19,09,37,12.00
2019,03,19,09,38,12.10
2019,03,19,09,39,12.10
2019,03,19,09,40,12.10
2019,03,19,09,41,12.10
2019,03,19,09,42,12.10
2019,03,19,09,43,12.20
2019,03,19,09,44,12.10
2019,03,19,09,45,12.10
2019,03,19,09,46,12.10
2019,03,19,09,47,12.10
2019,03,19,09,48,12.00
2019,03,19,09,49,12.00
2019,03,19,09,50,12.00
2019,03,19,09,51,12.00
2019,03,19,09,52,12.00
2019,03,19,09,53,12.10
2019,03,19,09,54,12.10
2019,03,19,09,55,12.10
2019,03,19,09,56,12.10
2019,03,19,09,57,12.20
2019,03,19,09,58,12.20
2019,03,19,09,59,12.20
2019,03,19,10,00,12.30
2019,03,19,10,01,12.30
2019,03,19,10,02,12.30
2019,03,19,10,03,12.30
2019,03,19,10,04,12.30
2019,03,19,10,05,12.30
2019,03,19,10,06,12.40
2019,03,19,10,07,12.40
2019,03,19,10,08,12.40
2019,03,19,10,09,12.50
2019,03,19,10,10,12.60
2019,03,19,10,11,12.60
2019,03,19,10,12,12.70
2019,03,19,10,13,12.70
2019,03,19,10,14,12.80
2019,03,19,10,15,12.80
2019,03,19,10,16,12.80
2019,03,19,10,17,12.80
2019,03,19,10,18,12.80
2019,03,19,10,19,12.80
2019,03,19,10,20,12.80
2019,03,19,10,21,12.80
2019,03,19,10,22,12.80
2019,03,19,10,23,12.80
2019,03,19,10,24,12.90
2019,03,19,10,25,12.90
2019,03,19,10,26,12.90
2019,03,19,10,27,13.00
2019,03,19,10,28,13.10
2019,03,19,10,29,13.10
2019,03,19,10,30,13.20
2019,03,19,10,31,13.20
2019,03,19,10,32,13.20
2019,03,19,10,33,13.20
2019,03,19,10,34,13.20
2019,03,19,10,35,13.20
2019,03,19,10,36,13.20
2019,03,19,10,37,13.20
2019,03,19,10,38,13.20
2019,03,19,10,39,13.20
2019,03,19,10,40,13.10
2019,03,19,10,41,13.10
2019,03,19,10,42,13.10
2019,03,19,10,43,13.20
2019,03,19,10,44,13.20
2019,03,19,10,45,13.20
2019,03,19,10,46,13.20
2019,03,19,10,47,13.20
2019,03,19,10,48,13.20
2019,03,19,10,49,13.20
2019,03,19,10,50,13.20
2019,03,19,10,51,13.20
2019,03,19,10,52,13.20
2019,03,19,10,53,13.20
2019,03,19,10,54,13.20
2019,03,19,10,55,13.20
2019,03,19,10,56,13.20
2019,03,19,10,57,13.30
2019,03,19,10,58,13.40
2019,03,19,10,59,13.40
2019,03,19,11,00,13.50
2019,03,19,11,01,13.50
2019,03,19,11,02,13.60
2019,03,19,11,03,13.70
2019,03,19,11,04,13.80
2019,03,19,11,05,13.90
2019,03,19,11,06,13.90
2019,03,19,11,07,14.00
2019,03,19,11,08,14.10
2019,03,19,11,09,14.20
2019,03,19,11,10,14.20
2019,03,19,11,11,14.10
2019,03,19,11,12,14.10
2019,03,19,11,13,14.10
2019,03,19,11,14,14.10
2019,03,19,11,15,14.20
2019,03,19,11,16,14.20
2019,03,19,11,17,14.20
2019,03,19,11,18,14.20
2019,03,19,11,19,14.20
2019,03,19,11,20,14.20
2019,03,19,11,21,14.20
2019,03,19,11,22,14.10
2019,03,19,11,23,14.10
2019,03,19,11,24,14.10
2019,03,19,11,25,14.10
2019,03,19,11,26,14.00
2019,03,19,11,27,14.00
2019,03,19,11,28,14.00
2019,03,19,11,29,14.00
2019,03,19,11,30,14.10
2019,03,19,11,31,14.20
2019,03,19,11,32,14.20
2019,03,19,11,33,14.20
2019,03,19,11,34,14.20
2019,03,19,11,35,14.20
2019,03,19,11,36,14.30
2019,03,19,11,37,14.30
2019,03,19,11,38,14.30
2019,03,19,11,39,14.30
2019,03,19,11,40,14.30
2019,03,19,11,41,14.30
2019,03,19,11,42,14.30
2019,03,19,11,43,14.30
2019,03,19,11,44,14.30
2019,03,19,11,45,14.30
2019,03,19,11,46,14.30
2019,03,19,11,47,14.30
2019,03,19,11,48,14.40
2019,03,19,11,49,14.40
2019,03,19,11,50,14.40
2019,03,19,11,51,14.50
2019,03,19,11,52,14.50
2019,03,19,11,53,14.60
2019,03,19,11,54,14.60
2019,03,19,11,55,14.70
2019,03,19,11,56,14.80
2019,03,19,11,57,14.80
2019,03,19,11,58,14.80
2019,03,19,11,59,14.80
2019,03,19,12,00,14.90
2019,03,19,12,01,14.90
2019,03,19,12,02,15.00
2019,03,19,12,03,15.10
2019,03,19,12,04,15.20
2019,03,19,12,05,15.20
2019,03,19,12,06,15.20
2019,03,19,12,07,15.20
2019,03,19,12,08,15.20
2019,03,19,12,09,15.20
2019,03,19,12,10,15.20
2019,03,19,12,11,15.20
2019,03,19,12,12,15.20
2019,03,19,12,13,15.20
2019,03,19,12,14,15.20
2019,03,19,12,15,15.20
2019,03,19,12,16,15.30
2019,03,19,12,17,15.30
2019,03,19,12,18,15.30
2019,03,19,12,19,15.30
2019,03,19,12,20,15.30
2019,03,19,12,21,15.30
2019,03,19,12,22,15.30
2019,03,19,12,23,15.30
2019,03,19,12,24,15.30
2019,03,19,12,25,15.30
2019,03,19,12,26,15.30
2019,03,19,12,27,15.30
2019,03,19,12,28,15.30
2019,03,19,12,29,15.20
2019,03,19,12,30,15.20
2019,03,19,12,31,15.20
2019,03,19,12,32,15.20
2019,03,19,12,33,15.20
2019,03,19,12,34,15.30
2019,03,19,12,35,15.30
2019,03,19,12,36,15.40
2019,03,19,12,37,15.40
2019,03,19,12,38,15.50
2019,03,19,12,39,15.50
2019,03,19,12,40,15.60
2019,03,19,12,41,15.60
2019,03,19,12,42,15.70
2019,03,19,12,43,15.80
2019,03,19,12,44,15.80
2019,03,19,12,45,15.90
2019,03,19,12,46,15.90
2019,03,19,12,47,15.90
2019,03,19,12,48,15.80
2019,03,19,12,49,15.80
2019,03,19,12,50,15.80
2019,03,19,12,51,15.70
2019,03,19,12,52,15.70
2019,03,19,12,53,15.60
2019,03,19,12,54,15.70
2019,03,19,12,55,15.70
2019,03,19,12,56,15.80
2019,03,19,12,57,15.80
2019,03,19,12,58,15.80
2019,03,19,12,59,15.80
2019,03,19,13,00,15.80
2019,03,19,13,01,16.00
2019,03,19,13,02,16.10
2019,03,19,13,03,16.10
2019,03,19,13,04,16.10
2019,03,19,13,05,16.10
2019,03,19,13,06,16.20
2019,03,19,13,07,16.20
2019,03,19,13,08,16.20
2019,03,19,13,09,16.20
2019,03,19,13,10,16.30
2019,03,19,13,11,16.30
2019,03,19,13,12,16.40
2019,03,19,13,13,16.40
2019,03,19,13,14,16.40
2019,03,19,13,15,16.40
2019,03,19,13,16,16.40
2019,03,19,13,17,16.40
2019,03,19,13,18,16.40
2019,03,19,13,19,16.40
2019,03,19,13,20,16.50
2019,03,19,13,21,16.60
2019,03,19,13,22,16.60
2019,03,19,13,23,16.60
2019,03,19,13,24,16.60
2019,03,19,13,25,16.70
2019,03,19,13,26,16.70
2019,03,19,13,27,16.70
2019,03,19,13,28,16.70
2019,03,19,13,29,16.60
2019,03,19,13,30,16.60
2019,03,19,13,31,16.50
2019,03,19,13,32,16.40
2019,03,19,13,33,16.50
2019,03,19,13,34,16.50
2019,03,19,13,35,16.40
2019,03,19,13,36,16.40
2019,03,19,13,37,16.40
2019,03,19,13,38,16.40
2019,03,19,13,39,16.40
2019,03,19,13,40,16.40
2019,03,19,13,41,16.50
2019,03,19,13,42,16.60
2019,03,19,13,43,16.60
2019,03,19,13,44,16.60
2019,03,19,13,45,16.60
2019,03,19,13,46,16.70
2019,03,19,13,47,16.70
2019,03,19,13,48,16.70
2019,03,19,13,49,16.80
2019,03,19,13,50,16.80
2019,03,19,13,51,16.80
2019,03,19,13,52,16.80
2019,03,19,13,53,16.80
2019,03,19,13,54,16.80
2019,03,19,13,55,16.90
2019,03,19,13,56,16.90
2019,03,19,13,57,16.90
2019,03,19,13,58,16.90
2019,03,19,13,59,16.90
2019,03,19,14,00,16.90
2019,03,19,14,01,16.90
2019,03,19,14,02,16.90
2019,03,19,14,03,16.90
2019,03,19,14,04,16.80
2019,03,19,14,05,16.80
2019,03,19,14,06,16.80
2019,03,19,14,07,16.80
2019,03,19,14,08,16.80
2019,03,19,14,09,16.80
2019,03,19,14,10,16.90
2019,03,19,14,11,16.90
2019,03,19,14,12,16.80
2019,03,19,14,13,16.80
2019,03,19,14,14,16.80
2019,03,19,14,15,16.80
2019,03,19,14,16,16.80
2019,03,19,14,17,16.90
2019,03,19,14,18,17.00
2019,03,19,14,19,17.10
2019,03,19,14,20,17.20
2019,03,19,14,21,17.30
2019,03,19,14,22,17.30
2019,03,19,14,23,17.40
2019,03,19,14,24,17.50
2019,03,19,14,25,17.60
2019,03,19,14,26,17.60
2019,03,19,14,27,17.60
2019,03,19,14,28,17.60
2019,03,19,14,29,17.70
2019,03,19,14,30,17.70
2019,03,19,14,31,17.80
2019,03,19,14,32,17.90
2019,03,19,14,33,17.90
2019,03,19,14,34,17.90
2019,03,19,14,35,18.10
2019,03,19,14,36,18.20
2019,03,19,14,37,18.20
2019,03,19,14,38,18.20
2019,03,19,14,39,18.20
2019,03,19,14,40,18.20
2019,03,19,14,41,18.20
2019,03,19,14,42,18.20
2019,03,19,14,43,18.20
2019,03,19,14,44,18.30
2019,03,19,14,45,18.30
2019,03,19,14,46,18.30
2019,03,19,14,47,18.30
2019,03,19,14,48,18.20
2019,03,19,14,49,18.20
2019,03,19,14,50,18.20
2019,03,19,14,51,18.20
2019,03,19,14,52,18.20
2019,03,19,14,53,18.20
2019,03,19,14,54,18.20
2019,03,19,14,55,18.20
2019,03,19,14,56,18.20
2019,03,19,14,57,18.30
2019,03,19,14,58,18.30
2019,03,19,14,59,18.30
2019,03,19,15,00,18.40
2019,03,19,15,01,18.40
2019,03,19,15,02,18.50
2019,03,19,15,03,18.50
2019,03,19,15,04,18.50
2019,03,19,15,05,18.50
2019,03,19,15,06,18.60
2019,03,19,15,07,18.60
2019,03,19,15,08,18.60
2019,03,19,15,09,18.70
2019,03,19,15,10,18.80
2019,03,19,15,11,18.90
2019,03,19,15,12,18.90
2019,03,19,15,13,19.00
2019,03,19,15,14,19.10
2019,03,19,15,15,19.00
2019,03,19,15,16,18.90
2019,03,19,15,17,18.90
2019,03,19,15,18,18.90
2019,03,19,15,19,18.90
2019,03,19,15,20,18.90
2019,03,19,15,21,18.90
2019,03,19,15,22,18.90
2019,03,19,15,23,18.90
2019,03,19,15,24,19.00
2019,03,19,15,25,19.10
2019,03,19,15,26,19.10
2019,03,19,15,27,19.10
2019,03,19,15,28,19.10
2019,03,19,15,29,19.10
2019,03,19,15,30,18.90
2019,03,19,15,31,19.00
2019,03,19,15,32,19.10
2019,03,19,15,33,19.10
2019,03,19,15,34,19.10
2019,03,19,15,35,19.10
2019,03,19,15,36,19.20
2019,03,19,15,37,19.20
2019,03,19,15,38,19.20
2019,03,19,15,39,19.30
2019,03,19,15,40,19.30
2019,03,19,15,41,19.20
2019,03,19,15,42,19.20
2019,03,19,15,43,19.20
2019,03,19,15,44,19.20
2019,03,19,15,45,19.10
2019,03,19,15,46,19.10
2019,03,19,15,47,19.10
2019,03,19,15,48,19.10
2019,03,19,15,49,19.10
2019,03,19,15,50,19.20
2019,03,19,15,51,19.20
2019,03,19,15,52,19.10
2019,03,19,15,53,19.10
2019,03,19,15,54,19.10
2019,03,19,15,55,19.10
2019,03,19,15,56,19.10
2019,03,19,15,57,19.10
2019,03,19,15,58,19.10
2019,03,19,15,59,19.10
2019,03,19,16,00,19.10
2019,03,19,16,01,19.00
2019,03,19,16,02,18.90
2019,03,19,16,03,18.90
2019,03,19,16,04,18.90
2019,03,19,16,05,18.90
2019,03,19,16,06,18.90
2019,03,19,16,07,18.90
2019,03,19,16,08,18.90
2019,03,19,16,09,18.90
2019,03,19,16,10,18.90
2019,03,19,16,11,18.80
2019,03,19,16,12,18.80
2019,03,19,16,13,18.80
2019,03,19,16,14,18.80
2019,03,19,16,15,18.80
2019,03,19,16,16,18.80
2019,03,19,16,17,18.90
2019,03,19,16,18,18.90
2019,03,19,16,19,18.90
2019,03,19,16,20,19.00
2019,03,19,16,21,19.10
2019,03,19,16,22,19.00
2019,03,19,16,23,18.90
2019,03,19,16,24,18.90
2019,03,19,16,25,18.90
2019,03,19,16,26,18.90
2019,03,19,16,27,18.90
2019,03,19,16,28,18.90
2019,03,19,16,29,18.90
2019,03,19,16,30,18.90
2019,03,19,16,31,18.90
2019,03,19,16,32,18.90
2019,03,19,16,33,18.90
2019,03,19,16,34,18.90
2019,03,19,16,35,18.90
2019,03,19,16,36,18.90
2019,03,19,16,37,18.90
2019,03,19,16,38,18.90
2019,03,19,16,39,18.90
2019,03,19,16,40,18.90
2019,03,19,16,41,18.80
2019,03,19,16,42,18.80
2019,03,19,16,43,18.80
2019,03,19,16,44,18.80
2019,03,19,16,45,18.80
2019,03,19,16,46,18.80
2019,03,19,16,47,18.80
2019,03,19,16,48,18.90
2019,03,19,16,49,18.90
2019,03,19,16,50,19.00
2019,03,19,16,51,19.10
2019,03,19,16,52,19.10
2019,03,19,16,53,19.10
2019,03,19,16,54,19.10
2019,03,19,16,55,19.00
2019,03,19,16,56,18.90
2019,03,19,16,57,18.90
2019,03,19,16,58,18.90
2019,03,19,16,59,18.80
2019,03,19,17,00,18.80
2019,03,19,17,01,18.70
2019,03,19,17,02,18.70
2019,03,19,17,03,18.70
2019,03,19,17,04,18.70
2019,03,19,17,05,18.70
2019,03,19,17,06,18.70
2019,03,19,17,07,18.70
2019,03,19,17,08,18.70
2019,03,19,17,09,18.70
2019,03,19,17,10,18.70
2019,03,19,17,11,18.70
2019,03,19,17,12,18.70
2019,03,19,17,13,18.70
2019,03,19,17,14,18.70
2019,03,19,17,15,18.70
2019,03,19,17,16,18.60
2019,03,19,17,17,18.70
2019,03,19,17,18,18.70
2019,03,19,17,19,18.70
2019,03,19,17,20,18.60
2019,03,19,17,21,18.50
2019,03,19,17,22,18.50
2019,03,19,17,23,18.40
2019,03,19,17,24,18.40
2019,03,19,17,25,18.40
2019,03,19,17,26,18.40
2019,03,19,17,27,18.40
2019,03,19,17,28,18.40
2019,03,19,17,29,18.40
2019,03,19,17,30,18.30
2019,03,19,17,31,18.40